SCP
0 0 0 0 0 0 0 0 0 0 0 0 0 0 0 0 0 0 0 0 0 0 0 0 0 0 0
0 0 0 0 0 0 0 0 0 0 0 0 0 0 0 0 0 0 0 0 0 0 0 0 0 0 0
0 0 0 0 0 0 0 0 0 0 0 0 0 0 0 0 0 0 0 0 0 0 0 0 0 0 0
0 0 0 0 0 0 0 0 0 0 0 0 0 0 0 0 0 0 0 0 0 0 0 0 0 0 0
0 0 0 0 0 0 0 0 0 0 0 0 0 0 0 0 0 0 0 0 0 0 0 0 0 0 0
0 0 0 0 0 0 0 0 0 0 0 0 0 0 0 0 0 0 0 0 0 0 0 -0 0 0 0
0 0 0 0 0 0 0 0 0 0 0 0 0 0 0 0 0 0 0 0 0 0 0 -0 0 0 0
0 0 0 0 0 0 0 0 0 0 0 0 0 0 0 0 0 0 0 0 0 0 0 0 0 -0 0
0 0 0 0 0 0 0 0 0 0 0 0 0 0 0 0 0 0 0 0 0 0 0 0 0 0 0
0 0 0 0 0 0 0 0 0 0 0 0 0 0 0 0 0 0 0 0 0 0 0 0 0 0 0
0 0 0 0 0 0 0 0 0 0 0 0 0 0 0 0 0 0 0 0 0 0 0 0 0 0 0
0 0 0 0 0 0 0 0 0 0 0 0 0 0 0 0 0 0 0 0 0 0 0 0 0 0 0
-0 0 0 0 0 0 0 0 0 0 0 0 0 0 0 0 0 0 0 0 0 0 0 0 0 0 0
0 0 0 0 0 0 0 0 0 0 0 0 0 0 0 0 0 0 0 0 0 0 0 0 0 0 0
0 0 0 0 0 0 0 0 0 0 0 0 0 0 0 0 0 0 0 0 0 0 0 0 0 0 0
0 0 0 0 0 0 0 0 0 0 0 0 0 0 0 0 0 0 0 0 0 0 0 0 0 0 0
Wind_Speed_500mb
16 15 12 24 39 24 20 19 18 21 23 25 30 31 29 24 17 19 18 18 24 31 34 32 26 24 19
17 14 22 35 27 42 29 20 19 17 20 26 30 31 32 30 22 21 21 22 23 28 29 33 28 23 17
15 18 18 27 33 26 27 22 25 19 18 22 30 36 39 36 32 28 23 21 23 27 31 36 27 21 20
16 19 24 24 34 33 37 39 31 35 21 22 25 35 40 41 41 31 26 22 24 24 32 30 22 18 13
15 11 21 27 33 38 39 39 34 33 33 23 25 35 44 48 46 42 33 24 24 26 26 22 20 15 9
17 15 20 24 33 39 40 41 38 31 47 28 29 36 46 51 56 38 36 32 25 25 20 22 18 14 12
19 16 15 19 21 34 44 40 38 41 37 38 32 39 44 50 51 44 34 37 33 24 21 21 17 13 8
22 20 19 22 23 27 24 34 39 44 45 33 41 41 44 46 42 37 39 38 33 28 24 21 17 10 6
23 22 21 19 31 27 24 27 31 39 48 51 57 52 50 47 46 40 37 37 33 30 26 22 15 8 3
27 22 22 21 25 27 21 26 35 35 55 64 48 53 54 54 56 46 43 44 39 33 29 21 13 6 3
29 20 19 23 23 21 18 23 30 41 58 61 53 43 53 57 61 52 50 49 45 34 29 19 13 7 5
29 24 15 18 20 21 18 23 29 47 62 75 64 52 54 62 60 55 52 49 40 33 26 18 17 8 8
28 24 10 14 17 20 19 13 17 35 54 69 69 59 53 63 59 55 52 46 41 35 29 24 23 17 15
20 22 15 3 11 8 6 6 15 28 52 62 60 62 56 57 54 54 47 49 46 42 40 27 15 18 23
23 19 12 5 1 3 3 3 10 13 55 68 58 57 52 56 53 48 43 44 50 46 38 20 14 13 28
22 18 12 2 2 6 5 5 6 0 58 50 56 54 47 51 52 49 40 43 41 43 41 35 16 22 16
Wind_Direction_500mb
306 265 245 219 205 195 208 201 204 208 209 201 196 194 196 201 193 166 155 146 153 154 158 152 144 144 149
286 267 216 213 199 202 195 210 212 205 212 214 209 208 208 205 197 172 158 158 152 153 157 156 156 155 170
285 264 253 219 211 188 208 232 234 223 220 225 219 214 208 209 194 175 168 156 153 147 150 157 161 155 177
316 258 246 230 206 215 236 226 222 220 227 237 229 218 208 208 207 184 174 165 148 153 149 161 164 158 177
305 297 259 234 230 225 224 215 215 213 216 226 234 223 207 208 174 178 175 158 153 148 151 151 151 158 154
289 276 245 245 232 233 231 231 229 213 209 228 235 226 213 210 190 188 176 162 160 153 149 144 142 133 124
285 270 258 251 239 234 239 237 236 222 227 234 239 226 219 213 220 185 189 179 165 161 159 147 152 139 102
299 280 263 243 254 243 251 235 235 230 220 214 236 230 218 211 205 209 198 184 181 171 169 166 161 145 96
307 291 269 265 251 260 255 247 227 226 220 226 222 222 221 213 206 213 187 178 180 186 186 185 176 159 153
316 303 275 268 254 255 261 248 226 224 215 212 218 214 218 206 210 198 193 188 192 195 190 191 193 197 251
318 308 282 264 261 258 273 260 240 234 218 208 210 217 214 211 202 199 196 201 201 196 194 194 198 221 256
320 319 284 257 252 261 277 263 291 244 215 209 215 209 209 208 207 203 199 203 206 198 196 199 217 254 270
321 320 272 231 249 254 274 270 292 216 201 206 210 204 203 209 205 200 199 201 193 193 192 199 217 245 262
319 318 322 234 228 255 286 335 287 222 193 201 202 194 196 206 200 198 196 193 198 196 198 200 213 218 221
327 323 312 221 101 54 341 285 320 263 180 198 198 182 189 206 199 193 196 197 194 197 209 195 175 187 175
336 332 332 280 24 42 37 41 270 45 169 165 177 177 181 192 195 195 199 198 200 204 206 199 185 184 175
Wind_Speed_850mb
16 15 12 24 39 24 20 19 18 21 23 25 30 31 29 24 17 19 18 18 24 31 34 32 26 24 19
17 14 22 35 27 42 29 20 19 17 20 26 30 31 32 30 22 21 21 22 23 28 29 33 28 23 17
15 18 18 27 33 26 27 22 25 19 18 22 30 36 39 36 32 28 23 21 23 27 31 36 27 21 20
16 19 24 24 34 33 37 39 31 35 21 22 25 35 40 41 41 31 26 22 24 24 32 30 22 18 13
15 11 21 27 33 38 39 39 34 33 33 23 25 35 44 48 46 42 33 24 24 26 26 22 20 15 9
17 15 20 24 33 39 40 41 38 31 47 28 29 36 46 51 56 38 36 32 25 25 20 22 18 14 12
19 16 15 19 21 34 44 40 38 41 37 38 32 39 44 50 51 44 34 37 33 24 21 21 17 13 8
22 20 19 22 23 27 24 34 39 44 45 33 41 41 44 46 42 37 39 38 33 28 24 21 17 10 6
23 22 21 19 31 27 24 27 31 39 48 51 57 52 50 47 46 40 37 37 33 30 26 22 15 8 3
27 22 22 21 25 27 21 26 35 35 55 64 48 53 54 54 56 46 43 44 39 33 29 21 13 6 3
29 20 19 23 23 21 18 23 30 41 58 61 53 43 53 57 61 52 50 49 45 34 29 19 13 7 5
29 24 15 18 20 21 18 23 29 47 62 75 64 52 54 62 60 55 52 49 40 33 26 18 17 8 8
28 24 10 14 17 20 19 13 17 35 54 69 69 59 53 63 59 55 52 46 41 35 29 24 23 17 15
20 22 15 3 11 8 6 6 15 28 52 62 60 62 56 57 54 54 47 49 46 42 40 27 15 18 23
23 19 12 5 1 3 3 3 10 13 55 68 58 57 52 56 53 48 43 44 50 46 38 20 14 13 28
22 18 12 2 2 6 5 5 6 0 58 50 56 54 47 51 52 49 40 43 41 43 41 35 16 22 16
Wind_Direction_850mb
306 265 245 219 205 195 208 201 204 208 209 201 196 194 196 201 193 166 155 146 153 154 158 152 144 144 149
286 267 216 213 199 202 195 210 212 205 212 214 209 208 208 205 197 172 158 158 152 153 157 156 156 155 170
285 264 253 219 211 188 208 232 234 223 220 225 219 214 208 209 194 175 168 156 153 147 150 157 161 155 177
316 258 246 230 206 215 236 226 222 220 227 237 229 218 208 208 207 184 174 165 148 153 149 161 164 158 177
305 297 259 234 230 225 224 215 215 213 216 226 234 223 207 208 174 178 175 158 153 148 151 151 151 158 154
289 276 245 245 232 233 231 231 229 213 209 228 235 226 213 210 190 188 176 162 160 153 149 144 142 133 124
285 270 258 251 239 234 239 237 236 222 227 234 239 226 219 213 220 185 189 179 165 161 159 147 152 139 102
299 280 263 243 254 243 251 235 235 230 220 214 236 230 218 211 205 209 198 184 181 171 169 166 161 145 96
307 291 269 265 251 260 255 247 227 226 220 226 222 222 221 213 206 213 187 178 180 186 186 185 176 159 153
316 303 275 268 254 255 261 248 226 224 215 212 218 214 218 206 210 198 193 188 192 195 190 191 193 197 251
318 308 282 264 261 258 273 260 240 234 218 208 210 217 214 211 202 199 196 201 201 196 194 194 198 221 256
320 319 284 257 252 261 277 263 291 244 215 209 215 209 209 208 207 203 199 203 206 198 196 199 217 254 270
321 320 272 231 249 254 274 270 292 216 201 206 210 204 203 209 205 200 199 201 193 193 192 199 217 245 262
319 318 322 234 228 255 286 335 287 222 193 201 202 194 196 206 200 198 196 193 198 196 198 200 213 218 221
327 323 312 221 101 54 341 285 320 263 180 198 198 182 189 206 199 193 196 197 194 197 209 195 175 187 175
336 332 332 280 24 42 37 41 270 45 169 165 177 177 181 192 195 195 199 198 200 204 206 199 185 184 175